Weather in Berdiansk

Ukraine / Zaporizhia Region     46˚45′20″N   36˚47′21″E
temp.,
°C
wind,
m/s
gust,
m/s
humid.,
%
clouds,
%
prec.,
mm/h
press.,
hPa
HPBL,
m
3 december, thu
thu323:00+5˚e9118399 0.0 1027528
02:00+5˚e8118699 0.0 1026519
05:00+4˚e8118891 0.0 1026501
08:00+4˚e8108794 0.0 1027540
11:00+5˚e81083100 0.0 1027541
14:00+5˚e81082100 0.0 1026536
17:00+6˚e8118380 0.0 1026478
20:00+5˚e8128556 0.0 1025492
4 december, fri
fri423:00+5˚e9128748 0.0 1026449
02:00+4˚e9138830 0.0 1026458
05:00+3˚e9138930 0.0 1025453
08:00+5˚e10138636 0.0 1026532
11:00+6˚e10138125 0.0 1025559
14:00+6˚e10138027 0.0 1025572
17:00+5˚ene10148315 0.0 1026584
20:00+5˚e10138117 0.0 1026649
5 december, sat
sat523:00+5˚e9127967 0.0 1026741
02:00+4˚e10117982 0.0 1027733
05:00+3˚e111483100 0.0 1026586
08:00+2˚e11148597 0.0 1027605
11:00+3˚e121581100 0.0 1027662
14:00+3˚ene11157695 0.0 1027773
17:00+3˚e11167320 0.0 1028851
20:00+2˚e12167010 0.0 1028778
6 december, sun
sun623:00+1˚ene1116740 0.0 1029695
02:00+1˚ene1217740 0.0 1029677
05:00ene1217750 0.0 1029672
08:00ene1217772 0.0 1029725
11:00+1˚ene1317737 0.0 1029720
14:00+2˚ene1317663 0.0 1028793
17:00+2˚e1217610 0.0 1029850
20:00+1˚e1217630 0.0 1030745
7 december, mon
mon723:00+1˚e1318660 0.0 1030691
02:00e1217680 0.0 1030707
05:00e1217710 0.0 1030675
08:00e1217750 0.0 1030704
11:00e1317750 0.0 1030736
14:00+1˚e1317720 0.0 1029893
17:00+2˚e1317670 0.0 1029895
20:00+1˚e1317720 0.0 1029777